Vertical_Velocity
-0 -0 -1 0 -2 -0 -1 -1 -1 1 2 -3 1 1 2 -1 -2 0 2 2 1 -1 -4 -2 -2 -1 0 -0 2 3 2 -3 -3 1 1 1 -1 -1 -1 -1 1 -1 1 2
-1 -1 0 -2 -1 -1 1 0 1 -4 1 -1 -3 -0 -2 -1 1 -0 2 1 0 1 2 -0 -2 -1 1 1 1 1 0 4 0 -0 -2 -2 -3 -1 -2 -3 -2 -3 -2 0
-1 -0 1 -0 -1 -3 3 -1 -0 -1 -5 3 -1 -2 0 -1 -1 -1 -2 0 2 2 -0 -0 1 -0 -2 -2 -1 -1 -1 0 -1 -1 4 3 3 3 1 0 -2 -6 -5 4
0 -2 0 -1 2 -2 0 2 -2 -0 -2 -2 2 1 -2 -0 0 0 -1 0 -0 -1 1 1 1 0 0 -2 -1 -1 -1 -2 -2 -2 -1 -1 1 2 1 -2 -0 -0 0 2
0 -0 2 3 -0 1 -3 0 2 -0 2 -3 -2 0 -0 -0 -2 -1 1 -0 0 -1 0 0 0 2 2 3 2 2 -1 -2 -1 1 1 0 -3 1 -1 -0 1 -1 3 5
-2 -0 -2 1 2 2 0 1 -1 0 1 1 -2 -6 0 1 -1 -2 -3 -2 -0 1 2 1 -1 -1 -1 -1 0 -0 0 2 3 1 1 2 5 2 4 3 0 -1 -1 -6
-1 0 1 -1 -2 1 6 -1 1 -1 -2 -2 2 2 -4 -3 1 1 -1 -1 -0 -2 -2 -1 -1 0 -0 -0 -1 2 0 -2 -3 -4 -5 -7 -1 1 1 2 2 1 0 0
-3 2 -0 3 -0 -2 4 2 0 -1 -4 -1 0 1 2 -2 -4 -3 -3 -0 0 -2 -2 -3 -2 -3 -1 -1 -2 -3 -2 -1 -1 -1 -2 -7 -2 0 4 1 -1 0 1 0
-1 -3 2 1 1 -1 0 4 1 2 -3 -4 -1 -2 -0 3 2 -3 -1 -2 -2 -1 0 1 -2 -4 -2 -1 -2 1 -0 -2 0 -1 -2 -2 -4 -3 -1 -1 -7 -2 -1 -3
4 -2 3 1 0 1 -1 -0 4 -1 5 -3 1 -2 0 -0 2 -2 1 1 -0 -1 -3 -2 -1 -4 -2 -3 -1 -2 0 -0 -3 4 -2 -6 -5 -2 -4 2 -9 -4 -4 -2
2 2 1 1 1 0 3 -1 1 1 -2 9 -6 -1 1 0 0 -0 1 3 -5 -1 0 -2 -3 -2 -0 0 -1 -4 -2 -2 -4 1 1 -9 -2 4 -3 2 0 -2 -3 -5
1 4 2 0 -1 0 5 2 1 3 -5 -1 9 -8 -2 1 2 2 -3 1 0 3 -1 -1 2 -1 -1 0 -2 -2 -3 -8 -5 -4 1 4 4 1 3 2 3 2 4 2
1 1 6 2 2 2 2 4 -1 3 2 -4 5 2 -2 -2 3 0 2 1 1 -1 2 2 3 -1 -2 -3 -3 4 -1 -4 -11 13 -8 3 1 2 2 2 1 1 -0 -1
-0 4 4 4 2 6 0 6 2 5 1 -1 -5 -1 1 0 -1 3 -1 -1 3 0 1 1 1 0 -2 -2 1 2 -0 -3 -1 -0 -3 3 2 3 6 3 3 5 6 6
2 0 4 2 1 6 4 5 0 5 -2 -1 -12 2 2 -3 -2 0 1 2 2 1 1 -1 -0 -5 5 1 5 -4 -4 -4 5 -8 5 1 1 2 1 2 -4 -2 -1 5
0 7 1 -1 4 3 8 -4 1 5 -1 9 13 5 -0 -1 -3 -3 -1 1 1 2 1 3 1 -0 2 3 -2 -7 -5 -5 -4 -1 -4 0 -0 2 -0 0 -2 4 -1 -5
1 4 -0 4 0 -0 -1 -9 -10 -1 14 2 9 -0 -4 0 -1 0 -0 2 2 1 1 -2 -2 1 4 -2 -5 1 11 3 3 3 -1 3 6 -6 -2 0 -6 -2 1 -1
3 6 -3 3 3 6 -4 8 7 10 8 10 1 0 -8 -2 -1 -0 2 -0 -1 -1 1 -3 -6 3 1 -11 -4 7 -2 -1 3 3 3 1 -2 -3 -2 1 1 1 2 -1
16 11 15 12 6 -1 -5 3 0 9 10 3 -1 2 -3 -0 -0 4 1 0 -0 0 -3 -2 4 2 -13 -9 6 5 4 -0 -5 -2 -2 -0 -3 -2 1 2 6 4 1 -1
-2 -2 4 7 11 7 1 6 10 2 1 3 3 2 -4 -3 1 4 2 -2 -1 0 -1 -1 0 -10 -6 8 -4 -2 -1 2 1 -1 1 2 0 1 3 3 0 -1 -2 -6
2 14 6 -0 11 7 13 3 9 3 2 2 6 1 2 1 -1 1 3 1 -2 -0 -1 -6 2 -18 8 0 1 2 -0 -4 -1 2 3 2 -0 1 1 -1 3 4 5 4
-1 -3 3 7 6 2 -0 5 -1 1 -3 -2 -2 0 4 2 1 4 2 -1 -1 1 -1 -3 -3 -1 2 0 -2 -6 -7 -2 -0 1 0 -1 5 -1 -0 -1 -2 6 7 1
1 1 1 -3 -6 -4 -6 -2 -0 -3 -2 -0 0 -5 -1 2 0 -1 -2 -1 -1 -2 -2 -4 -6 4 -0 -4 -8 -1 1 -2 -5 -5 -2 2 3 7 3 -10 6 -2 -5 1
1 -4 0 4 2 4 -1 -4 -3 -2 -0 1 -2 1 -1 0 -1 -2 -1 -2 -2 -1 -2 -5 4 -1 -6 -1 2 4 0 0 4 2 1 2 1 -6 0 -3 4 -6 -4 0
-3 -5 -0 -1 1 1 1 0 1 0 0 1 -2 0 -1 -2 -2 -0 -3 -0 1 -2 -3 0 -3 0 2 3 -2 -4 -0 0 -1 5 -2 -3 1 -4 -11 2 1 1 3 -3
-3 -2 -1 1 1 -1 -1 -2 -1 0 -1 -0 2 -0 -0 -1 -1 -2 -3 -5 -5 4 4 2 1 -4 -3 -3 -4 -4 -8 0 -6 -4 -2 -4 -1 -3 -8 -6 3 1 -0 -5
4 -3 -2 1 -2 0 3 5 5 3 3 -1 -4 -5 -3 -4 -4 -3 -5 -7 3 -5 -5 -4 -6 -6 1 -4 -2 1 -1 -1 1 -4 -0 -3 -2 -0 -2 -9 8 -1 2 3
Height
3137 3135 3134 3133 3132 3130 3128 3126 3124 3121 3119 3119 3116 3114 3112 3112 3111 3110 3109 3109 3109 3107 3106 3105 3104 3104 3103 3103 3102 3102 3103 3104 3106 3107 3107 3106 3106 3106 3107 3108 3112 3112 3113 3116
3133 3132 3131 3130 3129 3128 3127 3125 3123 3122 3119 3118 3118 3116 3115 3113 3112 3111 3110 3109 3109 3108 3107 3107 3106 3105 3105 3104 3104 3103 3103 3103 3104 3106 3109 3107 3106 3107 3108 3109 3111 3113 3115 3116
3128 3127 3127 3126 3126 3125 3125 3124 3122 3121 3119 3117 3117 3116 3115 3114 3113 3112 3111 3111 3109 3109 3107 3107 3107 3106 3105 3105 3104 3103 3103 3103 3102 3103 3103 3104 3104 3104 3105 3107 3109 3110 3109 3111
3122 3122 3122 3122 3122 3122 3123 3121 3119 3119 3118 3117 3115 3115 3115 3114 3113 3113 3111 3111 3110 3109 3108 3107 3106 3106 3105 3104 3104 3104 3104 3102 3102 3102 3101 3102 3102 3103 3103 3103 3106 3106 3106 3107
3116 3116 3116 3116 3117 3117 3118 3118 3117 3115 3115 3114 3114 3113 3112 3112 3112 3112 3111 3111 3109 3109 3109 3108 3106 3105 3104 3104 3103 3103 3102 3101 3100 3099 3098 3098 3097 3098 3098 3099 3100 3100 3101 3102
3109 3109 3111 3111 3111 3112 3112 3113 3113 3112 3111 3110 3111 3111 3110 3109 3109 3110 3110 3109 3109 3108 3108 3107 3106 3105 3104 3103 3102 3101 3100 3100 3098 3095 3095 3094 3095 3094 3093 3093 3095 3096 3097 3098
3099 3101 3102 3104 3105 3105 3106 3106 3107 3108 3106 3106 3106 3106 3106 3107 3107 3106 3106 3106 3107 3107 3106 3106 3105 3103 3102 3101 3100 3099 3098 3099 3098 3096 3095 3097 3093 3092 3092 3093 3094 3094 3093 3093
3089 3092 3093 3095 3097 3097 3098 3099 3101 3101 3101 3100 3101 3101 3102 3102 3102 3102 3103 3103 3103 3103 3103 3103 3101 3100 3099 3097 3096 3096 3096 3097 3098 3098 3098 3095 3092 3091 3091 3090 3091 3090 3091 3091
3077 3081 3084 3085 3087 3089 3090 3092 3092 3094 3095 3095 3095 3096 3097 3097 3096 3098 3098 3098 3098 3099 3099 3099 3097 3097 3097 3095 3094 3093 3094 3095 3098 3097 3098 3095 3089 3088 3087 3087 3087 3086 3087 3087
3064 3068 3072 3074 3077 3080 3081 3083 3084 3085 3086 3088 3088 3090 3091 3091 3091 3092 3092 3093 3094 3094 3094 3094 3094 3093 3093 3093 3091 3091 3091 3091 3093 3093 3093 3087 3084 3084 3084 3085 3085 3081 3081 3081
3051 3055 3059 3063 3066 3069 3072 3074 3076 3077 3078 3079 3081 3083 3084 3084 3085 3086 3086 3087 3087 3087 3088 3088 3088 3087 3087 3087 3086 3088 3090 3090 3090 3090 3089 3083 3079 3079 3082 3079 3076 3076 3075 3074
3035 3042 3047 3051 3055 3058 3061 3065 3067 3068 3071 3072 3072 3074 3077 3077 3078 3079 3079 3080 3081 3081 3081 3081 3081 3081 3081 3082 3083 3083 3085 3085 3086 3086 3081 3078 3075 3073 3073 3071 3070 3067 3067 3065
3021 3028 3034 3039 3044 3047 3052 3056 3057 3060 3062 3064 3064 3065 3068 3069 3071 3071 3073 3073 3074 3076 3076 3076 3077 3076 3076 3077 3075 3077 3078 3078 3077 3077 3076 3075 3071 3068 3066 3064 3062 3061 3059 3057
3007 3015 3021 3027 3033 3037 3040 3045 3048 3051 3053 3054 3055 3057 3057 3060 3061 3062 3063 3065 3067 3068 3068 3068 3069 3069 3069 3068 3070 3070 3073 3072 3070 3067 3068 3068 3068 3062 3058 3056 3054 3053 3050 3048
2995 3003 3010 3016 3022 3027 3030 3034 3038 3040 3046 3043 3046 3048 3048 3049 3051 3053 3055 3057 3058 3059 3060 3060 3061 3062 3064 3060 3059 3056 3064 3064 3061 3057 3060 3057 3054 3052 3051 3050 3047 3044 3041 3039
2984 2991 2999 3005 3013 3017 3021 3025 3028 3031 3033 3036 3038 3038 3039 3041 3043 3045 3047 3049 3051 3053 3054 3053 3052 3055 3058 3051 3046 3048 3053 3053 3053 3050 3048 3048 3046 3043 3042 3040 3036 3035 3032 3028
2975 2982 2988 2995 3000 3004 3009 3013 3015 3020 3024 3026 3030 3029 3030 3034 3036 3038 3041 3043 3045 3046 3047 3045 3047 3048 3048 3042 3040 3046 3044 3042 3042 3040 3039 3038 3038 3034 3033 3031 3028 3025 3023 3021
2967 2974 2979 2985 2988 2993 2997 3003 3007 3012 3015 3019 3021 3020 3025 3028 3029 3033 3034 3036 3039 3039 3039 3039 3040 3041 3041 3034 3038 3036 3034 3033 3031 3031 3030 3028 3026 3026 3024 3020 3018 3016 3016 3014
2959 2963 2969 2974 2977 2983 2988 2994 2999 3005 3011 3011 3011 3014 3018 3021 3025 3027 3029 3031 3032 3033 3032 3033 3034 3030 3029 3033 3030 3028 3026 3022 3021 3021 3021 3019 3017 3016 3015 3014 3013 3011 3009 3007
2950 2957 2964 2968 2973 2977 2984 2989 2994 2997 3000 3002 3003 3007 3012 3018 3019 3021 3026 3025 3027 3024 3026 3027 3023 3019 3027 3024 3020 3018 3016 3015 3014 3012 3012 3010 3008 3008 3009 3009 3007 3004 3002 2998
2946 2952 2958 2962 2968 2974 2979 2983 2987 2989 2991 2993 2996 3001 3005 3009 3013 3016 3018 3017 3020 3020 3020 3023 3017 3016 3019 3016 3014 3012 3012 3011 3009 3007 3004 3003 3003 3004 3003 3002 3001 2998 2993 2988
2942 2949 2954 2959 2963 2968 2973 2976 2980 2981 2985 2987 2991 2996 3000 3003 3007 3010 3011 3013 3015 3015 3015 3017 3011 3012 3010 3008 3008 3008 3008 3006 3004 3002 3000 2999 2998 2997 2997 2995 2992 2989 2983 2978
2944 2949 2954 2957 2961 2964 2966 2969 2972 2975 2977 2982 2987 2992 2995 2998 3003 3005 3008 3008 3011 3011 3011 3009 3008 3006 3004 3003 3004 3003 3002 3000 2998 2996 2996 2995 2994 2992 2989 2985 2983 2978 2972 2968
2945 2950 2953 2956 2957 2959 2961 2966 2970 2973 2976 2979 2983 2987 2991 2993 2997 3001 3003 3005 3007 3006 3005 3003 3003 3002 3002 3000 2999 2998 2997 2995 2994 2991 2990 2988 2984 2982 2979 2975 2970 2964 2958 2951
2946 2949 2952 2954 2955 2957 2960 2963 2968 2971 2974 2978 2981 2985 2989 2991 2995 2997 2999 3001 3000 2999 2999 3001 3001 2998 2998 2996 2994 2993 2992 2989 2986 2984 2981 2978 2974 2969 2965 2961 2955 2950 2944 2939
2946 2948 2951 2953 2955 2958 2960 2963 2967 2970 2972 2976 2980 2982 2984 2988 2991 2993 2994 2996 2996 2998 2996 2997 2995 2995 2994 2991 2988 2986 2984 2982 2978 2975 2971 2967 2962 2956 2949 2945 2942 2937 2932 2927
2942 2946 2951 2954 2956 2958 2960 2963 2966 2969 2972 2975 2977 2979 2982 2985 2987 2990 2990 2991 2992 2992 2991 2990 2989 2988 2985 2982 2981 2978 2975 2972 2968 2964 2959 2954 2949 2944 2938 2934 2930 2925 2921 2916